EW0844 Weather Reports


time (UTC)temp
C
wind
direction
speed
KPH
gust
KPH
rain 1hr
cm
rain 24hr
cm
rain mn
cm
humidity
%
barometer
mb
20260509230411 11 160 1.6 3.2 0.00 0.00 0.00 75 1014.6
20260509224911 12 88 0.0 3.2 0.00 0.00 0.00 74 1014.5
20260509223412 12 120 3.2 9.7 0.00 0.00 0.00 73 1014.6
20260509221912 12 360 3.2 9.7 0.00 0.00 0.00 72 1014.5
20260509214911 12 112 4.8 6.4 0.00 0.00 0.00 70 1014.7
20260509213411 13 97 4.8 8.0 0.00 0.00 0.00 68 1014.9
20260509210412 13 88 3.2 4.8 0.00 0.00 0.00 64 1015.0
20260509204913 13 81 3.2 4.8 0.00 0.00 0.00 62 1015.1
20260509203414 14 27 1.6 6.4 0.00 0.00 0.00 60 1015.0
20260509201912 14 89 1.6 3.2 0.00 0.00 0.00 58 1015.3
20260509200414 15 89 0.0 4.8 0.00 0.00 0.00 56 1015.3
20260509194913 15 313 0.0 3.2 0.00 0.00 0.00 56 1015.4
20260509193412 15 134 0.0 4.8 0.00 0.00 0.00 55 1015.5
20260509191914 16 133 1.6 3.2 0.00 0.00 0.00 55 1015.2
20260509190411 16 89 1.6 6.4 0.00 0.00 0.00 54 1015.1
20260509184914 16 76 3.2 6.4 0.00 0.00 0.00 52 1015.0
20260509183413 17 140 3.2 4.8 0.00 0.00 0.00 51 1015.0
20260509181911 17 31 1.6 6.4 0.00 0.00 0.00 50 1014.9
20260509174914 18 55 3.2 11.3 0.00 0.00 0.00 48 1014.9
20260509171913 18 55 4.8 14.5 0.00 0.00 0.00 47 1014.9
20260509170413 18 84 6.4 14.5 0.00 0.00 0.00 47 1014.9
20260509164913 18 52 8.0 16.1 0.00 0.00 0.00 48 1014.9
20260509161913 19 8 11.3 14.5 0.00 0.00 0.00 46 1015.2
20260509160413 19 33 6.4 12.9 0.00 0.00 0.00 46 1015.2
20260509154912 20 359 3.2 16.1 0.00 0.00 0.00 45 1015.2
20260509153413 20 66 4.8 11.3 0.00 0.00 0.00 44 1015.3
20260509151916 20 11 9.7 16.1 0.00 0.00 0.00 44 1015.6
20260509150413 20 88 4.8 17.7 0.00 0.00 0.00 44 1015.5
20260509144913 20 85 12.9 19.3 0.00 0.00 0.00 45 1015.8
20260509143413 20 58 9.7 17.7 0.00 0.00 0.00 45 1015.7
20260509140413 20 71 6.4 12.9 0.00 0.00 0.00 47 1015.8
20260509134915 19 36 4.8 9.7 0.00 0.00 0.00 48 1015.8
20260509131913 20 81 3.2 8.0 0.00 0.00 0.00 47 1016.1
20260509130413 19 88 3.2 17.7 0.00 0.00 0.00 50 1016.2
20260509124913 19 162 3.2 14.5 0.00 0.00 0.00 49 1016.4
20260509123413 19 74 8.0 16.1 0.00 0.00 0.00 50 1016.5
20260509121912 19 93 14.5 19.3 0.00 0.00 0.00 49 1016.7
20260509113415 18 64 9.7 19.3 0.00 0.00 0.00 50 1017.1
20260509111913 18 58 11.3 16.1 0.00 0.00 0.00 52 1017.3
20260509104916 17 359 4.8 16.1 0.00 0.00 0.00 56 1017.6
20260509103413 17 81 6.4 16.1 0.00 0.00 0.00 61 1017.7
20260509101913 16 99 8.0 12.9 0.00 0.00 0.00 61 1017.8
20260509100413 15 177 1.6 11.3 0.00 0.00 0.00 65 1018.0
20260509094915 14 327 6.4 9.7 0.00 0.00 0.00 71 1017.9
20260509093413 13 48 6.4 11.3 0.00 0.00 0.00 73 1017.9
20260509091912 13 50 4.8 8.0 0.00 0.00 0.00 72 1018.0
20260509090413 13 52 4.8 8.0 0.00 0.00 0.00 73 1018.2
20260509083413 13 330 1.6 4.8 0.00 0.00 0.00 75 1018.5
20260509081913 12 163 1.6 8.0 0.00 0.00 0.00 74 1018.6
20260509080416 12 202 6.4 9.7 0.00 0.00 0.00 75 1018.6
20260509074913 12 233 4.8 8.0 0.00 0.00 0.00 75 1018.6
20260509073412 12 231 3.2 6.4 0.00 0.00 0.00 74 1018.5
20260509070412 12 359 4.8 8.0 0.00 0.00 0.00 73 1018.6
20260509064914 12 238 4.8 8.0 0.00 0.00 0.00 73 1018.5
20260509061912 12 107 3.2 6.4 0.00 0.00 0.00 75 1018.3
20260509060416 11 268 1.6 3.2 0.00 0.00 0.00 75 1018.0
20260509054913 11 112 3.2 4.8 0.00 0.00 0.00 77 1018.0
20260509053413 10 151 1.6 4.8 0.00 0.00 0.00 80 1017.7
20260509051912 10 160 1.6 3.2 0.00 0.00 0.00 82 1017.7
20260509041913 8 88 1.6 3.2 0.00 0.00 0.00 86 1017.1
20260509040414 8 240 1.6 4.8 0.00 0.00 0.00 85 1017.1
20260509034913 8 116 0.0 1.6 0.00 0.00 0.00 84 1017.0
20260509033412 8 360 1.6 3.2 0.00 0.00 0.00 83 1017.0
20260509031913 8 196 1.6 3.2 0.00 0.00 0.00 82 1016.9
20260509030413 8 177 0.0 3.2 0.00 0.00 0.00 83 1016.6
20260509023412 8 359 1.6 3.2 0.00 0.00 0.00 82 1016.6
20260509021912 9 244 1.6 3.2 0.00 0.00 0.00 82 1016.6
20260509020412 9 88 1.6 3.2 0.00 0.00 0.00 83 1016.5
20260509014913 9 249 0.0 1.6 0.00 0.00 0.00 81 1016.5
20260509011912 10 146 1.6 4.8 0.00 0.00 0.00 76 1016.6
20260509010414 10 45 0.0 1.6 0.00 0.00 0.00 76 1016.5
20260509004913 11 359 1.6 3.2 0.00 0.03 0.00 76 1016.6
20260509003413 11 232 0.0 1.6 0.00 0.03 0.00 74 1016.7
20260509000413 11 1 1.6 3.2 0.00 0.03 0.00 72 1016.9
20260508234913 11 45 0.0 1.6 0.00 0.03 0.00 74 1016.9